Wind_Speed
61 61 63 62 65 66 66 62 60 64 64 66 64 65 65 66 65 63 61 59 59 58 59 54 50 50 48 45 42 42 43 45 45 43 44 44 41 40 37 36 34 33 32
57 66 68 66 67 67 69 70 70 68 65 66 69 68 69 69 69 68 68 66 64 63 62 60 59 54 55 52 49 45 43 42 44 46 45 45 44 42 40 38 36 35 34
57 59 64 70 76 75 72 73 72 74 72 73 70 71 72 74 72 72 73 72 70 69 66 69 69 64 62 58 54 52 48 47 46 45 47 47 46 44 44 43 42 40 37
62 63 63 65 68 71 76 82 81 78 79 79 80 79 78 74 76 76 75 74 74 73 73 73 74 71 70 69 64 61 58 55 54 50 47 49 50 46 45 43 44 41 38
66 67 69 69 69 69 72 75 76 82 85 84 85 82 83 83 82 81 81 78 76 75 77 79 79 79 75 74 71 67 66 63 60 58 56 54 51 49 46 46 45 43 39
75 74 74 74 76 76 74 73 76 78 78 79 83 87 92 88 86 86 86 86 84 81 82 79 77 81 83 81 78 73 72 69 67 66 62 59 58 54 50 48 47 45 41
84 83 83 83 83 83 84 84 81 79 78 79 82 84 86 90 96 94 90 90 93 93 90 88 86 82 81 83 82 81 79 75 73 71 68 66 64 59 55 53 53 48 45
94 93 91 91 90 90 90 90 91 90 87 85 84 84 87 89 90 93 98 98 96 95 94 95 95 93 90 87 83 85 85 84 79 76 74 73 71 67 63 61 58 56 52
100 100 100 99 98 98 97 97 97 95 95 94 93 92 90 91 92 93 94 96 101 102 99 99 99 98 96 94 90 88 86 88 89 87 84 80 79 74 72 69 68 63 59
106 106 106 106 105 104 104 104 104 103 103 102 100 101 99 98 98 96 98 97 98 102 103 107 106 98 98 101 100 96 94 92 91 91 91 91 88 82 77 75 76 71 66
105 104 105 106 108 110 109 110 111 111 111 110 109 108 108 108 106 104 103 106 103 102 102 105 106 109 110 104 102 102 99 97 96 95 92 94 93 92 87 81 79 76 73
107 108 108 109 109 109 111 115 117 118 117 117 116 115 115 115 115 113 111 111 113 112 109 107 108 110 111 113 114 109 105 104 104 101 99 97 95 96 95 92 88 81 78
115 115 114 113 111 112 112 112 116 120 124 123 121 121 122 122 121 121 121 119 117 119 120 118 115 115 115 114 115 116 117 112 110 109 107 105 103 101 100 99 97 91 83
123 122 121 120 120 120 118 120 119 118 122 127 130 129 127 126 127 129 128 127 126 125 125 125 126 124 121 120 118 118 118 120 122 116 112 112 109 107 105 103 102 99 99
133 132 130 129 128 126 127 125 126 128 125 126 130 135 136 136 133 132 133 134 135 133 132 132 132 132 131 129 126 124 123 122 122 124 124 120 115 114 111 109 107 104 102
138 139 140 141 140 137 135 133 131 132 134 135 133 132 135 139 141 142 140 138 138 140 139 138 137 137 138 137 135 134 131 128 127 126 125 126 125 123 118 114 113 112 109
141 140 136 133 133 134 134 134 135 137 137 138 138 138 137 138 141 142 146 148 147 145 142 142 144 144 143 142 143 142 141 138 134 132 131 129 129 129 127 123 117 115 116
125 123 121 119 119 120 121 124 128 132 135 137 140 141 141 139 139 141 144 147 150 155 153 147 146 147 148 148 146 147 147 146 144 141 138 136 134 132 130 130 129 124 118
111 111 110 109 110 113 116 117 118 121 123 125 128 131 135 138 139 139 137 139 144 148 152 156 154 154 151 151 151 151 151 150 149 148 146 144 141 139 136 133 131 130 129
105 105 105 106 106 107 107 109 110 111 112 115 117 118 121 126 129 132 132 132 132 133 139 146 149 156 161 161 159 158 157 155 153 152 151 150 149 147 144 141 138 134 132
109 109 110 111 111 112 113 114 115 115 116 117 118 120 122 125 127 128 129 129 129 130 131 132 135 141 147 157 164 168 166 163 161 159 157 156 156 152 150 148 145 142 140
116 115 116 116 116 117 118 118 118 118 120 122 124 126 129 131 132 132 133 131 131 131 132 133 133 135 135 143 153 161 164 170 172 170 169 163 164 160 157 154 151 148 145
119 118 117 116 116 116 116 115 115 114 114 115 116 118 121 123 127 130 132 133 134 135 134 134 132 133 136 139 144 148 155 162 164 170 181 174 172 167 165 160 158 156 152
115 113 111 108 106 105 105 104 104 103 102 104 106 107 109 112 115 117 119 121 123 124 127 127 128 131 135 136 141 144 148 152 154 158 171 172 177 177 177 174 168 163 161
102 99 97 97 97 98 99 98 96 94 94 95 96 96 97 99 103 106 106 107 108 110 117 116 114 113 120 127 133 141 142 144 145 150 160 167 169 175 181 180 179 175 169
96 95 95 95 95 94 96 95 91 89 90 90 89 88 90 91 93 95 97 96 94 100 104 104 104 104 107 111 118 124 126 132 137 139 150 156 162 171 174 175 178 179 179
Wind_Direction
253 254 255 255 253 251 252 249 251 252 252 250 250 252 255 256 253 254 253 253 250 249 249 251 249 249 250 250 258 261 260 256 258 259 261 262 262 263 263 264 265 268 268
257 253 252 255 255 255 255 254 250 249 250 251 251 250 252 253 256 256 255 254 255 254 251 253 246 247 250 250 250 252 254 255 256 258 257 260 261 261 262 263 265 265 268
265 260 257 257 253 251 253 256 258 257 252 250 250 252 250 249 252 253 256 256 254 253 254 254 255 250 249 249 248 247 249 251 252 254 255 257 258 259 261 262 263 264 263
264 264 264 262 260 259 258 256 254 254 255 256 256 254 252 252 249 249 251 252 253 253 253 253 253 250 254 251 249 247 247 247 250 251 253 254 255 255 258 258 259 259 259
267 265 262 262 263 263 262 259 258 256 255 253 254 254 254 256 253 250 249 249 251 253 254 254 252 251 254 252 250 250 247 248 247 249 252 253 251 252 253 255 257 258 256
267 264 263 262 260 258 259 260 259 259 257 256 255 254 251 251 252 253 252 250 249 251 251 252 254 253 250 250 251 248 247 246 249 251 249 250 252 252 250 250 252 253 255
268 267 264 263 262 259 258 256 256 257 256 258 259 256 255 252 248 248 248 251 254 253 251 252 251 251 253 252 249 247 247 247 247 250 249 251 254 251 252 254 251 248 246
267 265 263 261 260 259 258 256 256 255 254 255 256 257 257 254 253 251 247 245 247 249 251 252 251 251 253 251 251 250 249 248 246 247 249 251 253 254 254 256 254 251 247
267 266 265 263 262 260 257 256 256 255 254 252 253 254 255 256 255 253 252 250 247 247 247 249 251 250 251 251 251 250 249 248 249 248 248 249 250 252 253 256 258 256 251
268 267 266 265 264 262 260 258 256 255 254 254 252 251 251 252 254 255 254 252 252 250 249 247 245 246 247 247 248 250 250 249 248 248 249 248 247 248 251 254 255 255 255
268 267 267 266 267 263 261 260 259 257 255 254 253 252 250 250 249 250 252 255 250 250 251 251 249 247 244 243 245 246 247 247 249 248 247 248 249 248 248 248 252 253 254
271 269 268 268 267 265 263 262 260 259 257 256 255 253 252 249 248 247 248 250 255 252 248 248 249 250 249 247 246 246 245 246 246 246 248 247 247 248 248 248 249 250 253
271 270 269 269 268 267 265 263 261 259 258 256 255 254 253 252 250 248 246 246 248 253 254 250 248 248 248 249 249 247 246 245 244 245 246 247 247 247 248 249 249 248 249
272 272 271 270 269 268 268 265 263 260 259 256 256 256 254 252 251 250 248 246 246 246 250 254 253 249 247 248 248 249 248 247 245 243 242 244 244 247 246 246 248 248 249
273 274 273 272 270 269 266 264 263 262 260 258 257 255 254 254 253 251 249 248 246 244 246 249 252 254 252 248 246 247 247 247 247 246 245 244 242 242 245 248 248 247 246
274 274 274 273 269 268 266 265 263 262 261 260 257 256 255 254 253 252 252 251 250 246 243 245 247 250 252 252 251 248 246 246 247 247 247 246 246 244 242 241 244 246 247
273 274 272 270 269 267 267 265 264 263 261 260 260 259 257 254 253 253 252 251 251 250 248 246 245 246 248 250 251 250 249 246 245 245 246 247 247 246 246 245 242 242 244
273 272 271 270 270 269 268 267 266 265 263 263 262 262 260 259 257 254 253 252 251 250 249 247 247 246 246 247 249 251 250 248 247 245 245 245 246 247 247 246 246 244 241
271 271 270 270 271 270 268 267 266 266 265 264 264 264 263 262 262 261 258 255 253 251 250 248 246 246 246 246 246 249 251 250 249 247 245 245 244 245 245 245 246 246 246
275 274 274 273 273 272 271 270 269 268 267 266 265 265 264 263 262 262 261 259 257 253 251 249 248 247 247 246 245 245 246 249 250 250 248 245 244 244 243 243 244 245 245
278 277 277 276 275 274 273 271 270 269 267 266 264 263 262 261 260 259 258 258 256 254 252 249 246 245 246 247 246 245 244 246 247 248 249 248 245 243 242 242 242 243 243
280 280 279 278 277 275 273 271 270 269 268 266 265 264 262 262 261 260 259 257 256 255 253 251 249 246 244 243 243 244 243 243 242 247 246 246 249 246 243 241 241 241 242
280 279 278 277 276 275 274 272 271 270 269 268 267 266 265 264 263 262 261 260 259 257 256 254 252 249 247 246 244 243 242 242 241 241 245 244 246 247 248 244 241 239 239
279 278 278 277 276 275 274 273 271 271 270 270 269 267 266 265 264 263 262 261 260 260 259 256 254 251 251 249 248 245 244 243 241 240 242 242 242 242 244 246 245 241 239
279 278 278 277 276 276 275 275 274 274 273 272 269 268 266 264 264 263 262 261 260 260 259 257 256 253 252 250 248 248 247 246 245 242 241 242 241 241 241 242 243 243 242
280 280 279 278 278 277 277 277 277 277 275 274 274 272 270 266 264 263 262 261 260 259 259 258 256 254 252 251 249 248 246 245 244 243 244 243 242 242 241 240 241 242 243
Height
10735 10736 10738 10741 10744 10746 10749 10752 10755 10757 10760 10762 10764 10765 10767 10769 10771 10774 10776 10779 10781 10784 10786 10788 10789 10790 10790 10793 10794 10796 10798 10800 10801 10803 10804 10804 10806 10807 10809 10811 10812 10813 10814
10724 10725 10726 10727 10728 10730 10733 10736 10739 10742 10744 10746 10749 10751 10752 10754 10757 10759 10761 10765 10768 10771 10774 10777 10779 10781 10780 10782 10785 10786 10787 10790 10791 10793 10795 10796 10798 10799 10801 10803 10804 10805 10806
10711 10712 10713 10714 10715 10716 10717 10719 10721 10724 10728 10730 10732 10734 10736 10740 10741 10743 10745 10748 10751 10755 10759 10763 10765 10767 10768 10770 10773 10775 10777 10778 10781 10782 10784 10787 10788 10791 10793 10795 10796 10798 10798
10696 10696 10698 10699 10699 10700 10702 10703 10705 10706 10708 10711 10713 10716 10718 10722 10725 10728 10730 10732 10734 10737 10741 10745 10748 10753 10756 10758 10758 10762 10765 10766 10769 10771 10774 10777 10778 10781 10783 10786 10787 10789 10791
10678 10679 10680 10681 10682 10684 10684 10685 10686 10688 10690 10691 10693 10695 10697 10702 10705 10710 10713 10714 10717 10719 10723 10726 10730 10736 10739 10742 10745 10748 10751 10755 10755 10759 10762 10765 10767 10770 10773 10776 10778 10780 10782
10658 10659 10661 10662 10662 10663 10664 10666 10668 10670 10670 10672 10674 10673 10677 10681 10683 10687 10691 10695 10699 10701 10705 10707 10711 10715 10720 10724 10728 10734 10734 10738 10742 10746 10750 10751 10755 10759 10762 10764 10766 10770 10773
10635 10637 10638 10639 10641 10642 10644 10644 10646 10649 10651 10652 10653 10653 10653 10657 10660 10665 10668 10672 10676 10680 10684 10687 10691 10693 10698 10704 10711 10714 10718 10725 10726 10730 10734 10738 10742 10745 10749 10752 10755 10757 10761
10607 10609 10611 10612 10615 10616 10619 10620 10623 10626 10629 10631 10631 10631 10631 10633 10637 10641 10643 10648 10652 10655 10660 10664 10668 10670 10675 10681 10687 10694 10702 10706 10710 10713 10716 10720 10726 10730 10737 10740 10742 10746 10749
10577 10579 10581 10583 10585 10588 10590 10592 10594 10596 10600 10606 10608 10609 10609 10608 10612 10616 10619 10622 10625 10629 10634 10639 10643 10647 10651 10656 10662 10671 10680 10683 10688 10694 10699 10703 10705 10712 10719 10725 10728 10732 10737
10547 10548 10550 10552 10553 10556 10559 10562 10565 10568 10570 10574 10580 10582 10584 10588 10585 10588 10589 10597 10600 10603 10607 10612 10616 10620 10625 10630 10637 10647 10653 10658 10664 10672 10676 10681 10687 10695 10701 10706 10708 10715 10721
10515 10517 10518 10521 10523 10525 10526 10529 10531 10534 10537 10540 10544 10548 10553 10556 10561 10564 10565 10558 10572 10577 10580 10585 10587 10591 10596 10603 10609 10618 10625 10633 10639 10647 10654 10661 10669 10676 10681 10683 10692 10697 10703
10484 10485 10486 10487 10489 10491 10493 10495 10496 10497 10500 10504 10508 10512 10516 10521 10526 10534 10540 10538 10531 10539 10551 10556 10559 10562 10566 10573 10581 10590 10597 10604 10613 10620 10628 10636 10644 10652 10658 10664 10670 10679 10684
10449 10450 10450 10450 10452 10454 10455 10457 10458 10461 10464 10466 10469 10473 10478 10482 10489 10495 10504 10510 10513 10507 10508 10521 10529 10534 10537 10542 10551 10558 10567 10573 10582 10592 10601 10607 10617 10626 10633 10640 10647 10659 10664
10411 10411 10411 10411 10411 10412 10413 10416 10420 10421 10424 10426 10430 10434 10437 10441 10448 10454 10462 10472 10480 10485 10482 10479 10484 10497 10507 10514 10521 10527 10536 10543 10550 10559 10569 10579 10588 10596 10607 10615 10622 10632 10640
10370 10369 10368 10367 10367 10368 10369 10372 10374 10376 10383 10386 10389 10392 10396 10400 10405 10410 10417 10425 10437 10448 10454 10456 10451 10450 10463 10478 10489 10495 10503 10511 10519 10527 10536 10547 10557 10568 10577 10586 10596 10604 10613
10326 10324 10321 10321 10321 10320 10322 10326 10329 10330 10334 10337 10344 10350 10354 10357 10362 10367 10374 10380 10388 10400 10417 10417 10421 10422 10421 10431 10444 10457 10470 10477 10486 10494 10503 10512 10522 10533 10545 10556 10564 10575 10584
10282 10280 10276 10274 10273 10273 10273 10277 10280 10282 10287 10289 10293 10300 10306 10311 10316 10320 10327 10334 10342 10350 10368 10383 10385 10388 10390 10391 10397 10409 10424 10440 10452 10460 10468 10479 10489 10499 10510 10522 10534 10543 10552
10239 10237 10235 10234 10231 10231 10229 10232 10233 10235 10239 10244 10246 10253 10256 10257 10267 10272 10278 10286 10293 10300 10315 10334 10340 10347 10355 10358 10360 10363 10374 10389 10408 10422 10432 10443 10454 10464 10476 10487 10498 10511 10521
10201 10198 10197 10195 10193 10190 10191 10190 10191 10193 10196 10199 10200 10203 10206 10207 10214 10218 10224 10233 10240 10251 10259 10278 10297 10297 10307 10316 10325 10329 10330 10342 10355 10373 10390 10403 10414 10427 10438 10451 10462 10474 10488
10166 10163 10161 10160 10157 10156 10155 10153 10153 10155 10156 10159 10158 10159 10161 10162 10166 10166 10172 10179 10186 10197 10209 10223 10242 10252 10257 10267 10277 10286 10293 10296 10308 10322 10338 10356 10371 10383 10396 10412 10429 10441 10452
10130 10128 10126 10122 10120 10118 10115 10113 10113 10114 10115 10116 10116 10117 10117 10116 10117 10120 10125 10130 10136 10145 10155 10166 10184 10196 10211 10216 10223 10233 10250 10256 10268 10276 10284 10295 10319 10342 10357 10371 10387 10400 10414
10089 10089 10086 10082 10079 10075 10070 10068 10070 10072 10070 10071 10070 10069 10070 10070 10072 10075 10077 10084 10091 10097 10106 10114 10127 10143 10159 10158 10163 10174 10193 10202 10229 10229 10230 10254 10257 10285 10309 10327 10344 10361 10374
10053 10049 10044 10040 10036 10032 10027 10026 10026 10029 10028 10026 10026 10025 10024 10023 10023 10026 10031 10036 10043 10048 10057 10067 10079 10093 10101 10109 10119 10133 10136 10148 10172 10190 10166 10209 10221 10239 10249 10272 10293 10314 10334
10013 10009 10004 10001 9998 9991 9987 9986 9986 9990 9991 9987 9986 9983 9982 9979 9978 9981 9986 9989 9994 10002 10007 10014 10031 10046 10052 10064 10063 10075 10087 10100 10123 10142 10117 10153 10169 10187 10193 10209 10232 10257 10283
9976 9973 9970 9965 9961 9953 9949 9949 9951 9954 9954 9950 9946 9944 9944 9944 9940 9937 9945 9950 9957 9962 9956 9967 9980 9996 10003 10011 10018 10024 10041 10053 10073 10091 10086 10098 10122 10128 10138 10161 10180 10198 10223
9944 9940 9935 9930 9925 9922 9913 9914 9917 9919 9916 9911 9911 9910 9907 9909 9905 9904 9907 9915 9926 9921 9922 9929 9940 9950 9957 9965 9968 9974 9993 10009 10027 10052 10041 10044 10067 10068 10093 10123 10137 10152 10169